          19 18  18 09.40  +65 43.5   3.231  3.406    18.0 / 290  17.4   93  .65

          20 18  18 06.64  +65 49.6   3.229  3.401    17.8 / 289  17.4   93  .55

          21 18  18 03.89  +65 55.4   3.227  3.396    17.6 / 288  17.4   92  .46

          22 18  18 01.14  +66 00.6   3.226  3.391    17.4 / 286  17.3   91  .36

          23 18  17 58.38  +66 05.5   3.224  3.386    17.2 / 285  17.3   91  .28

          24 18  17 55.64  +66 09.9   3.223  3.381    17.0 / 284  17.3   90  .19

          25 18  17 52.90  +66 13.9   3.221  3.376    16.8 / 282  17.3   88  .12

          26 18  17 50.17  +66 17.4   3.220  3.371    16.6 / 281  17.3   87  .07

          27 18  17 47.46  +66 20.5   3.219  3.366    16.4 / 280  17.3   86  .03

          28 18  17 44.77  +66 23.2   3.218  3.361    16.2 / 278  17.3   85  .00

          29 18  17 42.10  +66 25.5   3.216  3.356    16.0 / 277  17.3   84  .00

          30 18  17 39.44  +66 27.5   3.215  3.351    15.8 / 276  17.3   83  .03

          31 18  17 36.82  +66 29.0   3.214  3.346    15.6 / 275  17.3   83  .07

     Aug.  1 18  17 34.22  +66 30.1   3.213  3.341    15.4 / 273  17.3   83  .14



NAKANO

         **** Don't distribute anyone except personal use only ****

                (C) Copyright 2003 OAA/ComputingSection

write mail from CFAD0::NAKANO on 2003-06-28 06:15:56(JST).

 



    C/2003 L2 (LINEAR)                                                    

T 2004 Jan. 17.36375 TT                                 Nakano

q   2.8801040            (2000.0)            P               Q

                   Peri.  119.32263     +0.08619997     -0.12475769

                   Node   273.81636     +0.11202621     +0.98705018

e   1.0            Incl.   82.15141     +0.98995944     -0.10083381

From 22 observations 2003 June 12-16.



NAKANO

         **** Don't distribute anyone except personal use only ****

                (C) Copyright 2003 OAA/ComputingSection

write mail from CFAD0::NAKANO on 2003-06-18 05:56:37(JST).

 



戻ります。